GFSSGP_sfc_wetblb_000.txt.gz
Wetbulb
60.34 61.81 62.92 59.40 51.68 50.55 45.56 46.29 49.01 47.82 48.33 52.35 52.40 51.78 50.25 51.55 48.43 46.00 60.31 63.56 66.86 67.28 69.70 70.48 71.37 72.52 72.85 72.90 72.79 72.63 72.28 70.97 70.69 70.41 70.11 69.32 68.90 68.17 68.47 68.71 68.95 69.01 69.13 69.42 71.10 72.62 72.74 72.32 72.50
61.20 59.53 60.77 56.49 48.56 45.27 44.61 47.29 46.41 48.80 50.66 51.16 51.33 51.45 50.42 49.61 54.43 55.79 57.90 63.85 66.87 66.73 69.12 70.31 69.55 71.16 71.77 72.70 72.64 72.50 72.01 71.42 70.63 70.28 70.10 69.23 68.85 68.53 69.24 69.25 70.20 69.62 69.47 69.66 71.22 72.65 72.53 72.13 72.24
58.74 57.88 56.24 52.22 48.34 43.94 44.55 47.07 48.33 49.22 50.03 50.34 49.97 50.79 50.64 50.11 52.53 54.95 61.27 63.22 66.21 66.08 68.20 69.40 67.27 69.61 71.05 71.52 72.21 72.12 72.00 71.71 70.53 70.14 69.55 69.18 68.97 69.21 69.94 70.50 71.57 70.89 70.58 69.98 71.62 72.20 72.09 71.72 71.99
57.95 57.12 53.43 48.55 43.96 46.34 46.48 48.45 48.80 48.87 49.67 49.64 49.16 48.15 51.25 54.01 52.98 57.04 61.74 62.78 64.93 65.67 66.74 67.37 66.63 68.55 69.72 70.74 71.84 71.61 71.62 71.25 70.33 69.79 69.33 69.21 69.54 69.87 71.26 71.32 71.64 71.68 71.26 70.39 72.02 71.90 71.58 70.99 71.39
56.98 53.72 49.31 46.48 44.56 46.61 48.33 48.52 48.00 47.76 48.84 49.30 48.28 48.10 48.85 52.83 54.66 56.53 60.00 62.40 63.64 64.73 65.61 66.78 65.72 67.58 69.15 70.07 70.80 71.27 70.96 70.90 70.50 70.30 70.22 70.54 70.78 70.85 70.79 70.52 70.55 71.11 71.32 71.02 72.11 71.72 70.98 70.62 70.61
52.88 51.93 46.85 44.75 44.47 46.57 48.32 48.94 47.80 47.90 48.59 48.83 46.84 47.80 49.46 52.30 52.83 55.94 58.98 61.71 63.87 64.10 64.60 65.87 64.36 66.17 67.99 69.30 70.63 70.84 70.31 70.48 70.09 69.55 70.00 69.97 70.09 70.25 70.13 70.09 70.17 70.54 71.53 71.98 71.70 71.37 70.51 70.06 69.55
50.83 49.81 46.06 44.42 44.21 45.49 47.17 47.93 47.68 48.41 48.20 48.84 48.60 46.70 51.16 52.16 54.97 55.80 57.96 61.05 63.04 63.71 63.74 65.04 66.41 65.94 65.27 67.45 68.43 69.16 69.32 68.92 69.27 69.35 68.79 68.96 69.01 69.34 69.51 69.68 70.10 70.57 71.57 71.87 71.02 70.41 69.81 69.48 69.11
52.57 50.29 44.90 45.40 44.62 44.53 47.92 47.35 48.01 47.43 48.58 47.89 48.74 47.93 49.21 51.70 54.73 56.76 58.29 59.81 61.23 62.40 63.24 64.08 65.89 66.08 67.65 68.33 65.64 66.15 67.33 67.52 67.40 67.48 66.74 65.87 65.95 66.67 67.09 66.63 67.87 69.99 70.28 70.69 70.11 69.33 69.16 68.92 67.57
51.34 48.11 45.14 44.57 44.11 46.56 47.99 47.07 48.87 48.45 47.74 48.08 48.57 48.52 50.64 51.22 53.42 54.63 55.75 57.86 59.44 60.27 61.56 63.23 64.73 66.11 66.91 67.61 67.11 64.50 64.66 65.10 65.07 64.93 63.80 63.38 66.99 67.31 66.94 66.03 66.49 68.72 68.36 68.74 68.91 68.62 67.68 64.95 63.76
50.01 47.33 45.33 47.34 47.59 47.38 48.72 46.93 47.19 47.35 49.07 48.52 49.12 51.60 51.43 51.78 51.22 50.69 51.00 51.61 53.34 55.76 59.18 61.71 63.34 64.51 65.97 66.43 67.72 68.19 67.73 67.34 66.81 66.45 66.22 65.95 66.19 67.11 66.97 63.34 63.08 65.30 65.20 66.29 68.32 67.49 63.51 61.52 61.78
47.78 46.75 46.25 46.88 47.58 47.57 47.44 47.49 46.69 46.69 47.06 47.60 46.26 48.45 50.08 51.21 50.13 48.63 48.69 49.26 49.97 52.21 55.06 57.93 61.13 63.50 63.67 65.61 66.11 67.15 67.80 67.75 67.27 66.85 66.51 66.17 65.56 65.83 66.71 67.55 67.14 67.57 61.15 62.73 63.87 62.81 61.30 60.56 59.45
45.55 47.24 46.31 46.87 46.84 46.69 46.31 46.74 46.64 45.75 47.95 48.31 49.22 50.14 51.22 47.78 45.92 45.83 46.55 47.56 48.21 49.51 50.66 53.61 56.88 60.24 62.77 63.33 64.60 64.71 65.88 66.90 66.52 66.52 66.33 65.44 64.68 65.03 65.70 65.35 65.53 64.52 61.52 59.59 61.01 60.28 59.81 59.46 58.53
45.12 46.40 45.45 45.76 45.61 45.52 45.75 45.91 44.27 45.83 47.90 50.42 50.67 49.99 47.58 44.74 44.88 46.19 46.95 47.93 48.52 48.38 50.21 50.83 53.37 57.36 60.32 62.69 62.58 63.84 63.63 65.22 66.09 65.83 65.74 64.90 64.17 63.87 64.67 64.20 63.87 63.11 61.08 59.76 61.07 58.47 58.70 58.35 58.60
45.29 44.95 45.60 44.79 44.50 43.90 44.51 45.01 44.25 46.53 49.53 48.03 48.26 46.36 44.43 43.93 44.43 44.73 44.99 45.67 46.87 48.44 49.45 51.72 51.95 54.39 57.79 60.51 62.62 62.16 62.96 64.07 65.08 64.96 64.69 64.27 64.24 63.68 63.45 63.63 62.88 63.07 60.83 59.32 58.82 58.22 58.35 57.29 57.92
43.89 42.84 46.15 45.14 45.11 43.05 44.39 43.71 42.65 47.68 47.62 45.62 45.89 44.14 43.39 43.67 44.51 43.71 44.76 45.03 46.57 48.53 49.39 50.68 52.53 54.29 55.48 57.62 60.10 61.31 62.07 61.93 63.16 64.21 63.87 63.58 63.60 63.65 63.25 62.85 62.16 62.77 62.17 59.73 58.00 57.16 57.70 57.17 57.56
43.00 43.53 40.18 44.99 44.71 42.48 45.49 39.56 45.55 47.25 44.10 44.24 43.75 42.67 42.30 42.62 43.24 44.17 44.60 44.54 45.79 46.70 46.87 48.66 51.51 54.51 56.14 56.01 58.55 60.83 60.62 60.92 61.38 62.95 63.72 63.04 62.78 63.34 62.63 61.40 61.09 62.34 60.61 57.46 57.84 57.52 56.30 56.73 57.47
43.52 38.85 38.95 40.23 45.01 43.13 43.38 40.83 45.17 44.77 43.60 41.46 40.95 40.60 40.69 41.40 42.46 43.58 43.63 43.69 44.22 44.83 45.23 46.36 48.61 50.36 52.95 57.74 57.15 57.84 59.17 59.76 60.32 61.12 63.06 62.35 62.06 62.35 61.91 60.66 60.43 60.22 59.30 58.35 56.39 57.37 56.54 55.60 57.79
38.49 38.32 38.92 38.44 42.45 42.90 41.44 41.46 43.67 42.07 40.68 39.25 39.23 39.26 39.47 40.00 41.07 42.50 42.40 42.91 43.50 43.93 43.96 45.35 47.20 48.59 50.36 53.70 58.59 57.42 58.68 58.55 59.78 59.55 59.97 59.85 60.93 60.73 60.71 59.62 58.51 58.06 57.86 56.02 55.95 56.92 57.70 56.85 56.31
40.41 38.85 38.30 40.70 43.24 40.41 40.32 40.01 40.03 40.69 37.97 37.50 37.61 37.13 37.38 38.95 41.83 42.55 41.54 42.20 42.50 43.40 42.90 43.91 45.15 47.14 50.01 50.60 52.13 53.80 54.74 58.11 58.32 58.65 58.88 59.02 58.04 59.40 59.58 58.32 56.48 56.98 55.97 55.90 55.35 55.82 55.18 54.44 54.26
40.00 37.75 37.54 40.48 41.75 38.47 38.52 36.89 38.22 38.29 35.25 35.89 36.40 35.96 36.53 37.92 40.03 40.51 40.18 40.20 40.94 42.44 42.02 42.98 44.20 45.69 48.82 49.52 50.04 51.39 52.67 55.41 58.36 59.07 58.45 58.05 57.64 57.88 58.20 57.27 55.81 55.73 55.17 54.02 54.02 54.16 52.95 52.43 53.41
38.37 36.46 36.64 35.15 37.73 39.45 37.03 35.22 36.34 36.16 36.41 35.72 36.28 36.63 36.81 36.57 37.15 38.19 37.78 38.30 40.72 41.45 41.26 41.85 42.88 44.71 47.41 47.51 47.10 47.95 50.17 52.39 54.27 56.91 57.01 57.02 57.43 56.74 57.25 56.71 55.66 55.36 55.34 54.35 53.86 53.63 52.83 51.35 52.84
34.75 37.58 36.10 34.28 32.86 29.77 36.29 27.25 34.94 35.29 33.90 33.40 34.48 35.10 35.45 35.85 36.30 36.97 37.04 37.42 39.37 40.66 41.76 41.42 42.19 44.07 46.58 47.26 44.30 42.38 43.86 46.03 49.68 52.20 57.14 57.11 56.72 57.35 56.50 56.39 55.71 55.08 55.47 55.90 53.86 53.98 53.52 53.27 50.84
36.58 36.18 34.60 34.10 32.43 31.58 32.43 29.12 34.02 37.45 31.71 30.76 33.15 34.52 35.31 35.57 35.64 35.87 36.74 37.81 38.67 40.90 41.13 41.22 41.00 43.00 44.52 45.91 44.66 42.18 41.60 44.29 47.96 49.57 53.63 56.05 56.15 56.46 55.59 55.95 55.62 54.38 54.99 55.96 54.61 54.67 53.72 53.10 51.60
35.49 34.52 34.94 34.21 31.96 25.82 28.52 26.48 29.60 30.48 27.75 30.24 32.85 33.84 34.09 34.40 35.33 36.22 37.13 38.06 38.69 40.56 40.28 41.55 40.03 39.99 42.83 42.99 44.61 42.24 41.51 42.11 44.06 46.73 48.90 54.62 55.48 55.31 55.19 55.39 55.35 54.61 54.34 55.23 53.94 54.20 54.62 53.01 52.14
34.52 32.33 26.03 24.38 25.94 25.23 29.32 25.35 29.07 29.36 30.40 31.01 31.34 32.40 33.20 34.24 34.65 35.03 35.05 36.47 37.83 38.38 38.85 39.65 38.95 38.74 39.53 40.19 42.19 42.88 42.04 41.91 42.69 45.53 47.04 49.30 53.85 54.02 53.96 54.72 54.64 54.15 54.14 53.66 52.88 52.98 51.27 52.62 52.43
31.32 31.20 24.32 15.05 18.93 22.12 26.58 20.71 27.71 31.02 32.84 33.07 33.05 32.66 33.07 33.33 34.15 34.60 35.72 36.35 36.88 37.25 38.18 38.51 38.85 38.61 39.03 39.66 41.00 42.84 42.35 41.96 42.47 42.95 45.61 48.60 48.13 54.74 55.07 54.41 54.85 54.41 54.08 53.18 52.59 53.87 51.79 52.38 52.44
30.93 27.65 29.70 22.48 19.32 17.09 24.28 27.32 31.46 31.33 30.98 31.49 31.04 31.00 31.16 31.72 33.41 34.38 35.36 35.90 36.13 36.51 37.12 37.42 37.55 38.02 39.11 39.20 40.36 42.25 42.33 40.85 40.74 41.36 42.09 42.13 48.19 49.27 54.52 54.09 54.20 54.29 53.93 53.17 53.12 52.79 51.73 52.38 52.52
29.41 30.82 22.40 23.92 12.76 12.04 22.38 23.61 24.96 26.55 27.30 29.03 28.82 29.19 29.99 32.13 33.05 33.78 34.22 34.96 35.56 36.18 36.47 36.73 36.70 36.70 38.06 39.08 39.96 41.32 41.97 41.71 40.50 39.73 40.73 41.17 43.26 46.96 50.78 53.58 53.74 53.66 53.63 52.57 52.32 52.44 52.52 51.65 51.93
25.77 24.54 24.58 23.99 21.03 13.62 12.60 22.02 29.30 27.00 27.80 27.23 28.20 29.22 30.12 31.47 32.31 32.79 33.48 34.31 34.15 34.29 33.69 32.58 33.21 34.34 36.23 38.32 39.10 39.87 41.46 42.01 41.30 40.80 40.55 40.91 41.30 40.41 43.68 52.96 52.95 52.63 52.10 51.27 50.37 50.37 50.75 48.71 49.70
28.17 26.22 24.72 18.90 15.80 18.80 16.65 16.44 30.08 29.30 29.24 28.77 28.04 28.88 30.55 31.57 31.84 31.77 31.72 31.36 29.90 27.24 26.05 25.48 26.25 27.51 29.17 30.84 33.45 38.84 39.64 41.28 41.15 40.60 40.15 40.46 40.28 39.70 41.51 48.00 52.36 51.77 50.77 50.55 49.25 48.07 46.88 46.24 46.01

GFSSGP_sfc_wetblb_003.txt.gz
Wetbulb
62.47 63.63 64.07 60.64 53.18 51.40 46.50 47.30 50.06 49.12 49.83 52.87 53.22 51.69 50.57 51.67 49.26 46.93 61.61 63.64 65.88 66.82 69.36 70.27 71.03 73.05 73.25 73.20 73.36 73.42 73.45 72.87 71.70 71.05 70.94 70.70 69.98 69.67 69.30 68.99 68.97 69.06 69.10 69.05 69.17 70.64 73.11 73.01 72.54
62.51 61.62 61.66 58.01 49.53 46.00 45.69 48.63 47.95 49.82 51.27 52.71 52.62 52.27 51.40 50.11 54.36 55.10 57.12 63.75 65.17 66.63 68.74 70.49 70.04 71.66 72.49 73.06 73.08 73.03 72.89 72.46 72.06 71.41 70.88 70.57 69.99 69.60 69.12 69.28 69.65 69.57 69.12 69.06 69.12 70.61 73.08 72.59 71.99
61.46 60.25 57.44 52.59 49.00 44.94 46.01 48.49 49.32 50.51 51.60 51.14 50.73 52.74 51.35 51.00 54.34 54.49 61.15 63.15 64.39 66.37 68.09 69.68 69.54 70.66 71.47 72.33 72.90 72.82 72.62 72.32 71.96 71.61 70.68 70.63 69.89 69.48 69.11 70.20 70.92 70.86 70.06 69.22 69.26 70.53 72.69 72.17 71.77
59.12 58.62 55.52 49.33 45.29 47.41 47.81 49.36 50.11 50.25 51.66 51.71 51.28 49.47 53.32 55.41 54.48 57.06 59.47 62.11 63.34 65.43 67.20 68.14 67.45 69.04 70.84 71.69 72.13 72.42 72.25 72.02 71.93 71.57 70.64 70.18 69.83 70.16 70.41 70.85 71.44 71.70 71.39 71.02 69.75 71.04 72.37 71.77 71.37
58.41 55.43 49.97 47.82 46.10 47.87 49.78 50.21 50.34 49.20 50.23 50.87 50.91 49.35 51.16 55.13 56.25 56.73 57.84 59.29 62.10 63.67 66.27 67.65 66.36 67.70 69.66 70.61 71.39 72.07 71.97 71.52 71.49 71.23 70.80 70.60 70.41 70.43 70.47 71.27 71.49 71.37 71.35 71.48 71.29 72.03 71.92 71.44 70.99
53.53 53.12 47.66 46.32 45.85 48.02 49.76 50.65 49.88 50.00 50.41 50.40 49.37 49.92 51.34 55.24 55.41 56.73 57.27 58.16 60.70 62.75 65.13 66.39 65.18 65.54 67.48 69.46 70.70 71.13 71.51 71.25 70.71 70.77 70.05 70.49 70.60 70.81 70.57 71.00 71.13 70.65 70.67 71.47 71.93 72.00 71.43 70.96 70.54
51.94 50.43 47.37 46.35 45.71 47.20 48.42 50.67 49.65 49.40 50.01 49.47 51.04 47.80 52.18 53.06 54.33 55.78 57.66 59.45 60.40 62.03 63.77 65.21 66.21 66.01 64.17 66.83 68.45 69.87 70.72 70.32 70.01 69.89 69.81 69.24 69.11 69.52 69.72 69.56 70.34 70.62 70.83 71.26 71.23 71.26 70.75 70.46 69.95
53.60 51.12 46.63 47.45 45.93 45.92 49.13 49.89 50.64 49.62 49.19 51.22 50.98 47.68 47.89 51.75 54.20 55.12 55.83 56.22 57.22 60.06 61.80 62.76 64.51 65.84 66.63 67.46 65.33 66.83 68.09 68.62 68.36 68.10 67.41 66.17 66.06 66.50 66.84 66.73 67.82 69.96 70.51 70.71 70.27 70.38 70.09 69.77 68.80
54.50 48.94 46.30 45.59 45.95 47.39 50.21 48.68 51.61 51.61 49.20 50.51 50.52 50.85 52.07 53.48 52.97 52.31 51.83 51.80 52.34 53.98 55.79 58.58 61.75 63.50 65.01 66.48 66.28 64.99 65.14 65.75 65.76 65.63 64.30 64.04 66.61 66.78 66.33 65.39 66.31 68.29 68.96 69.53 69.20 69.35 69.08 67.49 66.31
51.53 48.59 46.66 48.85 49.13 48.49 49.66 48.82 48.75 48.63 49.55 48.18 49.15 52.30 51.87 49.98 49.33 48.78 48.41 48.05 49.09 50.75 52.95 54.03 55.72 59.59 62.90 64.66 65.88 66.62 66.98 67.64 67.34 67.38 66.92 66.37 66.19 66.57 66.69 62.86 63.48 64.94 64.82 66.93 68.29 68.37 65.77 64.13 64.26
50.56 47.12 48.28 48.42 49.54 49.85 48.32 48.10 48.71 47.83 46.12 47.08 47.21 49.15 47.97 47.31 46.91 46.54 46.78 47.23 47.90 49.78 51.73 53.94 54.62 54.80 58.91 62.27 64.65 65.39 65.37 66.03 66.97 67.48 67.41 67.16 66.08 66.81 67.16 67.78 66.59 67.46 62.21 67.02 66.27 64.55 64.94 63.19 63.20
46.69 48.92 48.70 48.77 49.02 47.92 47.18 48.33 47.32 48.15 47.23 48.15 49.20 47.64 45.85 45.30 44.81 44.86 45.18 45.97 46.98 48.59 49.93 52.88 55.32 56.01 56.19 59.91 61.27 63.65 64.45 65.04 66.21 66.70 67.02 66.82 66.23 66.15 65.78 66.41 67.06 64.87 64.05 63.61 62.17 61.46 60.44 60.13 60.70
47.43 47.97 47.72 47.96 47.78 47.65 47.91 46.90 46.37 47.02 48.42 49.24 47.55 45.17 44.73 44.46 44.49 45.34 45.39 45.73 46.34 46.43 48.09 49.63 52.30 55.61 57.36 57.36 59.59 61.15 62.43 63.50 64.79 66.09 65.81 66.25 65.69 65.16 65.33 65.86 65.12 63.90 62.49 62.47 61.30 62.33 59.85 59.02 58.38
48.45 47.51 47.44 47.06 46.87 47.13 45.93 46.19 46.09 47.84 46.95 46.35 43.86 43.49 43.91 43.62 43.82 43.86 43.53 43.71 44.51 45.78 46.58 47.90 49.72 51.82 54.32 57.87 58.53 59.05 60.77 61.68 63.49 64.62 65.10 65.34 65.46 65.01 64.58 64.91 64.27 62.75 62.57 61.64 60.30 60.30 59.58 58.88 58.64
46.95 44.98 46.78 46.33 46.13 45.18 47.03 44.25 44.55 47.60 45.15 44.74 42.55 43.14 43.12 42.86 43.45 42.34 42.79 43.01 44.10 45.26 46.20 46.80 48.14 50.03 51.64 53.26 56.72 59.35 60.43 60.15 60.83 62.95 64.50 64.25 64.48 64.23 64.19 63.60 63.90 62.56 61.73 60.97 60.91 60.27 59.66 59.12 59.14
45.06 45.25 42.61 45.75 45.50 45.33 45.71 40.14 46.24 45.78 44.40 42.43 40.85 41.45 41.71 42.17 42.58 42.91 42.53 42.91 43.85 44.72 45.05 46.09 47.23 48.57 50.78 52.35 53.62 56.35 59.78 59.19 60.22 61.33 62.52 62.90 63.24 63.90 63.73 62.26 63.06 61.59 60.88 59.80 58.93 58.62 58.21 57.63 57.93
45.27 41.32 41.81 41.89 45.50 44.19 43.87 40.91 46.42 44.11 42.78 39.52 39.33 39.74 39.71 40.86 42.22 42.79 42.52 42.12 41.96 43.24 44.58 44.72 46.07 47.07 48.91 51.14 53.33 54.15 56.99 58.69 58.61 60.38 60.54 61.61 61.68 61.71 62.63 61.51 61.94 61.74 60.04 59.60 58.06 57.70 58.01 56.60 57.29
38.84 38.99 41.08 40.78 43.39 44.09 42.39 42.06 43.58 41.25 39.85 38.05 37.94 38.00 38.38 39.03 40.58 42.24 42.05 41.34 41.54 43.04 44.40 44.04 44.25 45.21 46.76 50.04 51.59 52.18 52.90 54.76 56.38 58.36 60.75 61.10 60.39 60.90 60.54 61.00 60.73 60.95 59.13 58.86 58.14 57.20 57.56 56.93 57.19
41.46 40.53 39.79 42.27 43.66 41.17 39.80 39.73 40.49 37.90 37.99 37.19 36.44 36.65 36.84 37.16 38.93 39.60 40.33 40.68 40.71 41.31 42.40 42.62 41.95 43.70 44.66 46.21 47.96 47.66 47.07 48.67 50.96 53.01 56.23 60.64 60.98 59.37 59.98 59.50 59.36 60.06 58.31 58.00 58.57 57.18 56.34 56.23 57.03
41.45 39.45 38.74 41.24 43.10 40.29 38.87 38.19 38.61 36.25 35.15 36.38 35.36 35.75 36.12 36.60 36.94 37.81 38.77 39.75 39.83 39.79 41.28 42.16 41.60 41.94 43.31 44.57 46.77 47.46 46.42 45.64 48.06 50.87 52.85 52.54 60.00 60.16 58.58 58.84 58.09 58.33 57.95 57.26 57.58 56.47 55.20 54.36 55.61
40.18 37.91 37.85 36.26 39.58 40.67 38.79 36.50 35.31 35.47 35.45 35.88 36.42 37.07 36.77 35.71 35.50 36.66 37.42 37.81 39.50 39.24 40.44 40.87 41.70 41.79 42.25 43.51 44.74 45.61 46.76 45.16 44.06 44.71 46.55 49.86 51.25 58.67 58.14 58.26 57.54 57.18 57.23 56.16 56.06 55.62 55.17 52.51 53.94
35.78 38.15 37.00 36.19 35.03 31.64 38.19 28.63 35.47 34.10 34.41 34.20 35.08 35.48 35.32 35.28 36.01 36.46 36.62 37.16 37.83 39.17 41.00 41.21 41.76 41.36 41.67 43.28 42.83 42.11 41.95 42.12 42.85 43.44 44.47 47.24 49.39 50.71 57.90 57.62 57.24 57.12 56.27 55.66 55.60 55.82 54.88 53.48 52.07
37.80 37.04 36.13 36.32 34.64 34.25 34.21 31.19 35.80 36.98 35.02 32.07 33.69 34.15 34.43 35.04 35.53 35.19 36.12 37.24 38.58 39.67 40.00 40.60 41.02 40.81 41.31 42.12 41.88 41.04 40.97 43.44 44.68 43.75 43.25 44.75 47.88 49.35 50.51 57.18 56.99 55.98 55.93 55.34 55.08 54.72 54.30 54.18 53.12
37.26 37.11 36.75 36.58 34.73 27.00 32.92 30.05 32.47 34.22 32.15 31.16 33.13 33.54 33.81 34.37 34.84 35.17 36.61 37.72 37.87 39.17 39.38 39.89 39.72 39.30 40.68 40.52 40.81 40.48 40.20 40.57 42.04 42.43 41.93 42.42 46.30 48.15 48.92 56.04 56.87 55.74 55.63 54.74 54.87 55.01 54.51 53.88 53.64
37.21 34.39 27.73 28.37 29.18 27.90 31.79 27.60 31.19 31.78 31.72 31.66 31.68 32.32 33.33 34.29 33.90 34.46 35.21 35.98 36.62 36.92 37.60 38.25 37.89 36.98 38.46 38.35 39.18 39.59 39.74 40.59 40.95 42.13 41.50 41.35 41.31 41.91 44.76 47.07 55.06 54.97 55.40 55.19 54.74 54.54 54.15 53.57 53.10
33.38 32.40 26.76 19.24 22.89 25.79 29.32 22.87 29.78 33.58 33.74 33.66 33.71 32.90 33.34 33.05 33.77 34.48 35.13 35.55 35.63 35.75 35.94 34.97 33.28 34.11 35.38 36.54 37.33 38.95 39.63 40.38 40.87 42.23 42.02 41.97 41.39 42.20 43.97 46.71 45.22 55.60 55.03 55.08 54.49 54.17 54.06 53.84 52.93
33.27 29.30 32.42 25.68 26.03 19.49 26.51 30.51 31.86 33.01 32.21 32.72 31.89 31.82 31.42 32.08 33.15 33.70 34.50 34.60 34.28 34.19 33.54 31.78 29.02 28.60 28.62 29.17 29.89 30.50 36.10 39.44 39.44 41.25 42.69 42.11 41.81 41.52 41.47 41.50 47.16 46.80 54.69 54.65 54.39 53.79 53.44 53.30 52.35
31.36 33.64 24.69 25.68 15.71 15.93 25.42 26.03 27.49 28.60 28.85 30.07 29.62 29.93 30.52 31.88 32.41 33.21 33.47 33.32 34.03 32.54 30.59 28.31 26.47 25.02 25.13 25.72 27.23 29.03 30.91 32.50 34.65 40.54 40.88 41.52 41.25 41.17 40.89 40.84 41.80 44.72 53.48 53.99 53.36 52.80 52.94 52.29 52.30
27.97 26.89 26.57 26.59 24.56 17.10 16.46 23.93 30.64 28.53 29.15 28.13 29.22 29.90 30.32 31.40 31.69 31.81 32.23 33.39 31.66 30.08 27.99 25.94 24.78 23.74 23.79 24.58 25.84 26.74 28.07 29.55 31.42 33.79 40.46 41.11 41.59 40.69 39.91 39.84 39.73 42.61 42.88 53.27 52.02 51.81 51.06 50.60 50.80
28.80 28.28 28.27 21.50 20.34 21.26 20.04 19.19 32.51 31.71 30.96 30.09 29.41 29.73 30.97 31.44 31.22 31.61 32.04 31.05 29.10 27.30 25.73 24.02 23.35 22.75 23.01 23.69 23.49 24.31 25.87 27.67 30.03 31.70 32.94 40.33 40.64 40.94 39.61 38.38 38.03 38.98 42.25 50.20 51.18 50.68 50.25 49.81 49.69

GFSSGP_sfc_wetblb_006.txt.gz
Wetbulb
63.07 61.55 61.56 58.02 49.25 47.32 42.55 43.66 45.22 46.69 46.57 48.44 49.77 47.66 46.08 47.78 46.57 41.95 57.00 61.03 62.50 63.28 68.43 69.25 71.14 72.31 73.52 73.47 73.69 73.58 73.47 73.03 72.28 72.11 71.75 71.31 70.90 70.53 70.27 69.84 69.54 69.26 69.24 69.42 69.29 69.74 71.21 73.74 73.39
60.23 61.35 59.04 55.19 44.69 41.59 40.93 44.08 45.31 46.56 48.08 48.28 48.07 47.58 46.54 45.58 50.91 51.06 55.35 60.12 60.93 63.80 65.39 69.01 69.73 72.33 73.24 73.26 73.24 73.37 73.25 73.24 72.55 72.10 71.45 71.28 70.82 70.34 69.99 69.80 70.07 69.40 69.41 69.16 69.37 69.38 71.44 73.33 72.93
60.53 59.76 53.62 49.52 44.25 40.23 41.31 45.31 45.81 47.61 49.08 48.03 46.62 47.36 46.35 46.59 50.47 50.94 54.59 57.91 60.27 61.18 65.03 68.58 69.77 71.12 71.75 72.56 72.95 73.04 73.03 72.30 72.55 72.37 71.35 71.20 70.92 70.63 70.14 69.86 70.34 70.44 69.96 69.43 69.06 69.27 71.39 73.04 72.69
56.91 55.66 52.60 44.46 42.11 43.88 44.07 45.64 46.97 47.07 48.05 49.06 47.31 44.60 49.14 52.02 51.33 52.73 55.24 55.23 58.48 60.26 63.57 67.38 68.33 68.98 69.94 71.40 72.21 72.52 72.48 72.42 72.44 72.31 72.16 71.68 71.48 71.17 70.76 70.42 70.66 71.08 70.98 71.15 70.11 70.00 70.87 72.53 72.35
55.74 52.49 46.11 43.37 42.55 44.06 45.87 47.66 46.86 45.73 45.66 46.93 46.18 45.04 46.25 50.61 51.95 53.19 54.18 56.39 56.10 57.74 61.69 64.95 67.08 66.93 67.54 69.34 70.86 71.76 72.17 71.58 71.09 71.21 71.34 71.60 71.33 70.81 70.58 70.56 70.77 71.09 71.12 71.17 71.47 71.57 70.77 72.01 71.87
50.12 49.56 43.18 41.28 42.48 45.41 46.63 47.54 46.25 46.45 47.11 46.81 44.54 43.75 45.34 50.86 51.01 52.01 53.03 53.65 55.86 56.75 60.70 62.93 64.13 65.59 65.97 66.95 68.58 70.51 71.26 71.72 71.18 70.34 70.82 70.71 70.98 70.71 70.78 70.84 70.70 70.55 70.58 70.74 71.39 71.60 70.87 71.66 71.37
48.99 47.08 43.03 41.31 42.94 44.91 46.24 47.42 45.63 45.07 45.37 44.63 46.96 43.23 46.04 47.24 50.18 50.94 50.39 50.93 51.59 52.22 52.73 55.51 60.65 63.44 63.80 64.85 65.85 67.56 69.24 70.32 70.68 70.62 69.66 69.74 69.53 69.63 69.72 69.64 69.95 70.44 70.28 70.61 71.00 70.89 71.20 71.47 70.87
49.84 47.18 43.20 41.97 42.26 43.14 45.65 45.84 47.84 46.15 44.53 48.15 48.28 42.39 41.05 45.25 48.90 49.24 49.06 48.72 49.39 50.87 51.54 52.31 52.39 53.75 60.78 62.93 64.39 64.75 66.39 67.84 68.62 68.50 67.77 66.35 66.53 66.76 66.79 66.45 67.95 69.76 70.07 70.27 70.32 70.16 70.37 71.02 70.08
52.51 44.78 42.22 42.24 43.12 43.79 46.79 45.34 47.40 47.99 46.00 47.07 48.28 44.34 44.83 46.57 47.49 45.81 45.27 46.09 47.24 48.70 49.40 51.21 52.65 53.02 52.99 56.55 61.26 62.80 63.94 65.34 65.76 66.02 64.71 63.99 64.79 65.12 64.69 64.36 65.89 68.20 68.43 69.06 69.59 69.95 69.55 68.50 67.03
47.58 44.22 43.76 45.79 45.40 44.57 46.12 45.13 43.93 44.59 44.27 43.74 45.37 44.86 45.86 44.78 43.57 42.80 42.48 42.67 43.97 44.76 46.34 47.62 49.81 52.92 53.83 55.16 57.40 61.37 63.01 64.56 65.21 65.49 65.25 65.03 64.86 63.99 64.28 62.57 63.30 65.42 64.90 66.32 68.72 69.30 67.60 64.99 65.45
47.13 43.79 45.82 46.78 47.88 46.63 45.11 44.11 44.60 43.31 41.26 42.33 40.66 41.29 42.99 42.44 41.93 41.49 41.32 41.33 42.25 43.46 44.38 45.49 46.86 48.48 51.86 54.34 55.17 57.79 60.63 62.69 63.84 64.34 64.47 65.29 65.04 63.59 62.09 62.74 62.13 62.28 59.75 63.50 65.36 64.57 64.82 65.08 64.22
43.26 47.13 47.30 48.29 47.12 45.61 43.63 44.86 43.66 43.64 42.27 43.57 42.33 42.83 41.80 40.82 40.76 40.26 40.27 40.97 41.57 42.24 43.13 44.14 45.78 46.60 48.06 50.31 53.53 55.05 56.98 59.84 61.83 63.12 63.36 63.15 63.41 63.30 61.79 62.30 62.91 61.90 62.51 59.61 61.36 60.27 59.71 60.86 62.01
44.84 45.18 46.56 46.62 45.40 44.20 45.72 42.99 43.58 41.89 43.65 42.95 43.09 42.64 40.49 40.09 39.63 39.93 40.50 41.03 41.32 41.46 42.42 42.86 44.16 45.33 47.12 47.83 49.83 51.06 54.48 56.03 58.81 61.06 61.86 62.56 62.46 62.34 62.23 61.30 62.08 62.58 62.10 61.67 59.93 59.06 58.97 58.17 58.72
45.53 45.43 45.54 45.54 45.07 44.93 43.12 41.71 43.55 42.44 42.56 41.27 41.75 40.06 39.48 39.49 39.24 38.72 39.15 39.42 39.64 40.72 41.88 42.63 43.01 44.31 46.05 46.64 47.84 49.63 51.58 54.76 57.18 58.86 60.49 61.53 61.98 61.88 61.88 61.04 61.48 61.56 62.14 61.73 59.79 58.79 58.08 57.08 57.07
44.65 41.54 43.06 43.41 44.10 43.02 42.90 40.39 40.77 42.48 42.46 40.28 39.65 38.88 39.40 39.68 39.77 38.45 38.52 37.96 38.45 39.89 41.71 42.32 42.80 43.22 43.32 44.04 45.93 48.48 50.35 51.72 53.77 56.57 58.30 59.76 60.61 60.88 61.07 60.95 61.48 61.85 61.57 61.17 60.31 59.42 58.91 57.63 57.74
41.36 40.65 37.79 42.94 43.95 43.05 40.90 35.13 40.25 42.10 41.49 37.56 37.03 35.38 37.27 38.87 39.46 39.22 38.93 37.60 37.66 39.01 40.42 42.00 42.97 41.57 41.72 41.98 43.18 46.69 48.49 49.12 49.99 53.18 55.19 57.56 59.09 60.05 60.10 61.04 61.30 61.49 61.42 60.49 59.63 59.19 58.30 58.04 57.49
40.51 35.32 36.81 39.87 43.35 41.97 40.46 35.96 40.46 41.51 39.10 36.06 34.70 34.90 35.71 36.72 36.86 36.14 36.69 36.35 36.90 37.52 38.17 38.68 40.84 39.65 39.84 40.83 41.99 44.09 46.61 46.07 47.08 47.34 49.31 51.83 54.71 58.20 59.08 59.88 61.12 61.47 60.83 60.13 59.31 58.45 58.24 57.32 57.37
33.01 33.41 36.26 35.90 40.04 40.41 38.36 38.25 38.58 38.97 36.94 34.10 32.94 33.30 33.20 34.01 34.45 36.02 36.43 36.94 36.87 36.27 36.48 37.78 39.28 39.91 40.15 40.17 40.39 41.16 43.42 45.25 44.89 44.70 45.44 46.75 51.31 51.74 55.60 58.33 59.61 60.51 59.87 59.02 58.79 57.50 58.04 57.66 57.28
37.45 36.28 35.42 39.19 40.87 36.28 36.82 36.51 38.01 36.98 35.18 32.71 31.84 31.85 31.93 32.73 34.44 35.44 36.06 35.26 35.64 35.42 36.29 37.29 37.80 38.50 39.25 38.78 37.54 38.01 38.34 40.89 43.00 44.29 44.77 45.89 48.54 48.61 49.28 48.86 57.87 59.33 59.11 58.17 57.76 56.86 56.06 56.30 57.18
38.11 35.81 35.32 37.96 40.59 37.11 36.17 36.04 34.87 35.27 34.51 33.72 32.50 31.27 31.44 32.12 32.64 34.07 34.56 34.12 34.62 35.03 36.01 36.90 37.68 38.24 38.68 39.12 38.52 38.41 38.78 40.18 41.40 44.10 44.44 44.49 44.63 46.45 47.41 47.91 47.14 57.71 58.28 57.87 56.89 56.29 55.28 55.52 57.02
36.60 34.80 33.65 33.44 36.60 37.27 35.35 32.51 30.67 33.03 33.43 34.17 33.98 33.25 32.58 31.42 31.62 32.55 33.26 32.25 34.26 34.61 35.47 36.78 37.36 37.67 38.07 38.94 38.60 38.07 38.83 39.29 38.70 39.56 41.80 43.90 44.08 44.66 45.11 47.97 48.39 49.88 58.59 57.22 56.72 56.13 55.14 53.68 55.74
32.77 35.15 34.89 34.19 30.40 25.79 33.38 23.47 29.54 30.12 30.25 32.08 32.41 30.06 29.62 29.99 31.93 32.32 32.24 33.13 33.84 34.89 36.09 36.33 36.72 36.62 37.39 37.90 36.51 35.96 34.60 34.55 37.17 38.38 40.50 41.91 44.12 44.03 45.11 46.46 47.57 47.31 49.20 56.19 57.11 56.55 55.92 55.25 53.35
35.11 34.90 33.31 32.77 30.28 28.94 29.73 25.05 28.96 30.93 28.06 29.83 30.16 30.34 29.41 29.56 30.62 30.51 32.14 33.92 34.58 35.26 34.92 35.17 34.99 35.17 35.55 33.83 32.70 32.86 33.76 34.42 35.06 37.61 37.92 39.39 42.31 43.72 44.44 43.18 46.26 47.12 45.45 52.72 56.95 56.20 55.86 55.71 54.64
37.04 34.08 33.84 33.16 29.90 20.95 28.06 26.52 26.85 27.44 30.58 29.02 29.94 28.92 30.05 29.48 29.41 31.64 33.66 34.21 33.88 34.25 34.02 33.67 33.19 32.42 32.23 30.24 28.61 27.77 28.20 28.18 31.08 34.10 35.29 37.28 39.77 42.32 42.58 42.20 42.99 46.29 47.55 49.50 56.40 56.20 56.03 55.52 55.27
34.15 29.87 21.49 20.79 19.73 19.83 27.52 22.84 27.14 28.44 29.66 29.37 28.82 27.87 28.16 28.39 30.05 30.69 31.45 31.68 32.37 32.07 32.64 31.89 30.32 28.48 28.03 26.38 25.63 25.69 25.59 26.22 27.19 28.94 33.34 36.39 38.22 40.57 41.19 41.72 41.89 43.59 43.87 46.28 54.60 55.82 55.60 55.25 54.70
30.68 28.92 20.75 13.54 16.35 19.00 25.11 19.22 26.27 30.58 30.90 31.25 30.64 29.44 29.47 28.97 29.59 30.68 31.13 31.33 31.23 31.93 31.02 29.46 27.94 26.46 26.01 24.89 24.09 24.61 24.64 24.76 25.97 28.59 29.61 30.19 36.46 39.88 41.82 42.14 41.35 41.77 42.53 46.52 47.21 54.77 55.32 54.60 54.49
29.87 24.60 29.02 21.72 12.40 12.11 19.43 26.29 28.66 29.71 29.41 29.44 28.61 28.72 27.19 28.09 29.32 29.90 30.82 30.94 30.89 30.50 29.28 28.07 26.42 25.24 24.51 23.52 23.29 23.06 23.49 23.72 24.39 25.83 27.87 29.09 31.63 38.56 40.99 41.35 40.37 40.58 41.08 42.60 45.98 45.95 53.95 54.28 53.88
27.39 30.81 21.37 21.33 7.79 7.81 19.26 22.07 23.24 24.52 26.40 27.13 25.94 25.79 25.91 27.88 29.30 29.40 29.80 30.06 30.70 29.87 28.68 27.50 25.87 23.62 23.41 22.50 22.19 22.15 22.20 22.57 22.89 24.30 24.49 27.21 30.25 32.13 39.71 40.10 39.69 39.59 39.18 40.50 45.29 44.90 51.44 53.06 53.56
24.14 22.40 24.06 25.00 21.91 12.73 9.69 17.55 27.06 26.15 27.53 24.84 25.30 27.16 26.84 27.57 27.74 28.49 29.14 29.97 29.65 28.69 27.30 25.80 24.33 22.46 21.48 21.36 20.42 19.82 19.55 20.64 22.39 22.47 23.72 26.08 29.11 29.70 32.39 39.65 39.16 38.33 37.74 38.79 39.94 44.68 50.49 51.94 52.09
26.22 26.23 25.69 15.68 15.91 17.51 16.12 19.03 30.79 29.15 28.24 27.43 26.57 27.13 26.47 28.12 27.80 28.40 28.55 28.66 27.83 26.64 25.47 24.19 23.04 21.45 21.11 20.27 18.85 18.87 18.28 19.75 18.70 20.68 22.91 24.71 24.93 29.35 29.05 30.41 38.51 37.27 37.38 37.76 38.27 42.46 43.09 51.36 50.98

GFSSGP_sfc_wetblb_009.txt.gz
Wetbulb
61.77 58.18 56.34 53.34 45.37 41.11 36.44 39.44 40.95 43.17 42.65 43.71 46.70 45.82 44.83 45.21 44.19 39.80 55.12 57.65 58.72 60.75 67.93 69.00 70.77 72.07 72.99 73.20 72.65 72.50 72.67 72.76 72.27 72.02 71.89 71.66 71.20 70.82 70.29 70.35 70.70 69.71 69.65 69.43 69.69 69.72 70.25 72.36 73.74
56.36 59.01 54.74 49.05 40.74 35.40 35.94 38.63 41.18 42.64 45.05 45.12 46.21 44.96 44.77 42.66 48.11 50.25 50.22 54.14 58.91 59.73 66.46 68.85 69.70 71.97 72.51 72.86 72.40 72.15 72.38 71.77 72.15 71.92 72.08 71.88 71.42 71.50 70.36 69.89 70.71 69.65 69.66 69.56 69.40 69.78 70.18 71.53 73.11
57.92 57.67 48.76 44.56 37.76 34.97 36.49 39.13 40.95 43.96 46.41 45.02 43.20 46.22 43.59 43.47 48.30 48.01 51.46 54.22 56.78 59.25 65.85 68.22 69.29 70.20 70.52 71.11 71.89 72.45 72.59 72.72 72.12 71.67 71.32 71.66 71.56 71.49 71.23 71.00 70.88 70.17 69.75 69.87 69.68 69.32 70.63 71.14 72.68
52.48 51.27 47.48 40.52 37.32 39.47 40.15 39.86 43.02 43.55 45.19 47.09 45.18 41.59 45.34 48.03 48.43 49.49 51.30 51.67 52.26 54.61 59.56 66.29 68.38 68.28 68.12 68.02 69.96 71.25 71.67 71.80 71.43 71.48 71.41 71.15 71.46 71.17 71.39 71.30 70.89 70.47 70.03 70.45 70.67 70.45 70.41 70.70 72.06
50.84 46.07 40.65 38.20 37.12 40.24 41.06 43.58 43.58 43.50 43.29 43.54 44.72 41.03 42.37 46.73 48.06 48.29 49.06 50.56 50.13 51.00 52.37 53.69 60.84 65.63 67.46 67.50 68.06 69.16 70.45 70.89 71.11 71.17 70.97 71.37 70.99 70.82 71.22 71.08 70.85 70.84 70.32 70.65 70.90 71.23 71.09 70.65 71.22
45.65 44.06 37.91 35.79 37.25 40.97 41.33 43.97 43.02 42.40 43.10 42.95 42.96 41.53 40.42 45.73 46.44 46.79 47.86 47.79 49.65 50.13 51.81 53.25 56.32 58.55 60.95 65.81 67.21 67.65 68.00 69.18 70.09 70.37 70.21 70.61 70.14 70.26 70.49 70.38 70.77 70.82 70.65 70.37 70.60 71.40 71.01 71.11 70.73
45.46 40.86 37.58 37.32 39.07 40.75 42.68 43.94 42.41 41.65 40.68 42.75 43.64 40.28 40.66 43.12 45.26 45.65 45.66 45.61 47.01 48.33 48.56 50.36 52.06 54.84 57.24 58.64 61.97 65.82 67.08 67.88 68.62 69.04 69.25 68.76 68.51 69.10 69.18 69.26 69.65 70.34 70.48 70.51 70.58 70.84 70.89 70.82 70.83
45.20 42.08 38.51 39.81 38.55 38.83 42.26 43.33 44.60 43.33 42.10 45.41 44.60 38.24 35.14 40.79 43.84 44.00 44.16 43.70 44.40 45.39 45.91 46.26 47.62 50.57 53.29 54.09 58.30 60.37 63.47 64.70 65.51 66.41 66.54 65.94 66.11 66.06 66.62 65.91 67.16 68.80 69.80 70.20 70.06 70.06 70.35 70.52 70.53
47.40 40.87 38.16 37.74 39.46 40.12 43.11 41.86 44.58 44.68 41.93 41.36 42.72 40.46 41.32 42.07 42.87 41.43 41.07 42.17 42.99 43.88 43.73 44.56 45.57 46.87 49.05 50.31 54.77 57.17 60.06 61.92 62.72 63.37 63.56 63.31 64.54 65.87 65.09 64.40 65.37 67.53 67.52 68.12 69.24 69.53 69.41 68.73 68.01
43.50 39.36 39.47 41.39 40.50 40.10 42.12 41.79 42.16 41.65 40.35 38.63 39.65 41.41 42.12 41.20 39.63 38.51 38.48 38.83 39.71 40.74 42.04 42.90 43.85 44.83 46.50 48.49 49.84 51.94 54.34 57.69 58.98 60.92 62.01 63.31 63.52 64.38 64.78 62.65 62.68 64.58 65.08 66.23 67.70 68.02 67.59 65.38 65.97
42.36 39.92 42.40 43.43 44.08 43.72 42.24 41.62 42.39 40.28 37.22 37.37 37.09 37.93 39.58 38.70 37.70 37.35 37.31 37.39 37.54 38.66 40.13 41.90 42.56 44.17 44.58 46.03 47.38 48.26 49.77 53.17 56.67 57.86 58.89 60.65 62.11 63.18 63.43 63.19 62.30 62.03 60.31 63.10 64.37 64.48 64.62 64.15 65.32
39.45 44.35 44.19 45.44 44.49 43.45 41.30 42.15 39.95 39.46 38.11 40.48 39.64 39.46 38.17 36.63 36.24 36.44 36.60 37.12 37.23 38.09 39.80 40.59 40.78 42.12 43.02 44.45 45.27 46.37 47.78 50.47 52.09 54.26 57.53 58.35 59.56 60.69 62.32 62.51 62.04 61.79 62.06 61.10 61.90 61.74 62.18 63.35 64.27
41.15 42.70 44.13 44.39 43.90 42.06 43.39 41.37 39.20 36.83 39.16 40.38 40.30 39.18 36.90 36.31 36.16 36.50 36.99 36.77 36.31 36.72 38.83 39.78 39.74 39.77 41.83 41.34 41.78 43.02 45.03 48.52 49.64 51.03 53.36 56.10 57.28 58.43 60.58 61.52 61.76 61.81 60.87 61.03 61.06 60.35 60.26 60.12 60.51
42.46 42.90 43.22 43.40 43.19 42.81 41.01 40.48 40.48 38.36 38.43 38.76 38.66 36.95 36.45 36.83 36.69 35.54 35.49 35.28 35.68 37.11 37.61 39.14 39.95 39.66 39.92 39.66 39.48 40.32 41.70 45.25 48.23 48.47 49.27 53.51 53.45 54.84 57.46 59.42 60.47 61.69 62.31 62.00 61.05 60.15 59.35 59.45 60.26
42.10 38.99 40.51 41.46 41.89 41.37 41.17 37.61 38.41 39.37 38.73 37.76 37.13 35.97 36.75 36.92 36.91 35.12 34.41 34.62 34.41 35.69 36.43 36.95 38.86 39.80 39.76 39.84 40.14 40.03 40.51 42.23 43.85 46.39 48.35 47.44 48.97 49.49 50.52 53.53 58.11 59.94 61.93 61.43 60.62 59.27 58.14 57.94 58.65
38.19 37.27 33.96 40.69 41.69 41.54 38.62 32.91 36.60 38.59 36.93 34.29 33.40 32.55 35.11 35.68 34.85 33.82 34.32 34.07 34.25 34.77 34.85 37.04 38.61 38.40 38.76 38.86 39.40 40.15 40.08 39.72 40.68 44.76 45.69 45.88 45.91 46.25 45.95 51.38 51.40 56.98 60.18 61.07 60.23 58.82 57.11 57.12 57.16
36.15 31.94 33.08 36.61 41.60 39.62 37.59 34.32 37.59 38.87 36.02 32.70 31.39 32.37 33.39 32.71 32.86 32.69 33.72 33.31 33.84 34.56 33.71 35.51 36.90 37.52 38.07 38.71 39.17 39.13 38.94 38.46 39.69 41.67 42.66 44.44 44.86 45.34 48.21 47.79 48.92 49.58 52.02 60.19 60.36 59.08 57.93 55.72 55.68
30.42 30.40 32.99 32.84 38.23 38.13 36.22 35.83 36.46 36.46 34.73 31.28 30.49 30.63 31.03 31.34 31.58 33.65 33.89 33.65 33.38 32.84 32.89 34.18 36.66 37.22 37.67 38.11 38.14 38.07 38.49 38.46 38.73 38.86 40.36 43.61 43.99 45.02 43.64 45.25 46.54 46.98 48.17 48.98 59.38 58.60 58.21 57.14 55.87
34.57 33.11 31.81 35.31 39.39 36.59 35.03 35.47 33.96 34.85 31.92 29.36 29.24 29.71 29.78 30.64 31.30 33.39 33.32 32.34 32.22 32.23 32.04 33.63 35.43 36.06 36.40 35.75 34.72 35.02 35.76 36.57 36.96 37.93 39.44 40.79 42.81 43.62 42.93 43.25 43.54 45.25 46.26 47.59 46.91 58.17 57.37 56.99 57.36
35.84 33.51 32.04 35.78 37.51 34.91 34.02 33.69 36.54 33.92 32.21 31.03 29.90 29.43 29.31 29.69 30.29 31.78 31.24 31.09 30.54 30.70 31.74 34.32 34.93 35.18 35.21 35.08 35.42 35.63 34.52 34.72 35.80 37.12 38.26 40.10 40.76 41.96 43.06 42.17 42.40 43.79 45.36 45.76 46.84 46.97 57.13 57.21 57.32
34.10 32.23 31.12 32.55 34.25 34.55 32.42 29.41 30.14 31.77 32.10 31.55 31.61 30.74 29.88 29.76 29.85 29.77 31.23 29.76 29.50 30.03 30.65 33.80 34.21 34.19 34.22 34.16 33.39 32.62 32.03 31.34 31.19 33.53 35.29 36.60 37.67 40.60 42.45 42.27 42.25 42.52 43.36 45.19 45.36 45.48 47.34 54.99 56.09
30.68 33.76 33.04 32.18 28.42 24.10 30.03 22.98 25.57 28.19 29.45 30.64 30.28 27.44 28.06 29.01 30.11 29.86 29.67 28.95 28.88 30.60 31.17 32.91 33.37 33.06 33.14 31.89 29.74 27.37 25.20 23.69 26.20 27.47 29.56 30.27 35.22 38.14 41.28 42.67 41.48 40.82 40.68 40.24 45.48 46.33 45.75 50.92 54.08
33.37 33.45 31.89 30.73 28.20 24.73 27.11 22.77 26.05 28.97 26.72 28.33 27.32 27.15 27.62 28.70 29.47 27.83 29.45 31.09 31.10 31.11 30.24 30.52 30.75 31.48 31.15 29.85 28.19 25.91 23.97 24.43 25.07 25.17 24.96 27.16 30.93 35.67 37.66 39.76 40.37 40.08 40.42 40.80 43.64 45.51 45.18 44.40 55.17
35.29 32.34 31.36 29.09 25.85 18.84 26.12 25.76 22.70 23.65 28.33 28.30 26.82 26.87 28.54 28.59 27.90 28.21 30.39 31.00 30.32 29.43 29.70 29.77 29.90 29.98 29.76 28.24 26.90 24.99 23.10 22.47 22.23 22.45 22.72 25.29 28.72 30.73 33.33 38.59 40.82 40.54 40.74 40.65 41.74 43.44 46.11 45.08 52.63
32.35 27.01 21.44 18.55 17.30 19.63 24.11 21.79 27.82 28.62 29.83 29.83 25.93 26.19 27.21 27.81 27.01 27.52 27.74 28.14 29.04 28.74 29.29 30.07 29.58 28.14 28.11 26.72 25.40 24.46 23.15 22.43 21.43 21.64 22.17 23.13 24.62 26.69 28.85 32.18 35.86 40.23 40.78 40.79 40.51 41.66 43.96 45.26 42.99
30.00 27.83 21.63 15.19 15.06 20.00 24.13 20.70 25.53 27.51 28.99 28.42 28.12 27.25 27.42 26.90 27.26 27.41 27.63 27.67 28.10 28.45 29.49 28.93 27.87 26.85 26.77 25.43 24.34 24.05 22.91 21.98 21.25 21.93 21.75 21.23 21.95 24.36 28.20 29.91 32.25 38.82 40.35 39.91 39.87 40.60 43.52 44.72 44.43
28.21 24.72 28.02 22.57 6.86 10.01 19.02 23.16 26.32 26.92 26.85 26.40 25.98 26.24 25.49 26.62 26.70 27.36 27.77 27.51 27.24 27.24 28.67 27.16 26.83 26.14 25.47 24.37 23.43 22.64 22.33 20.78 19.53 20.09 19.83 20.88 23.37 24.95 25.97 29.23 32.29 33.84 39.87 39.59 39.34 39.09 40.91 44.77 44.69
27.77 30.24 22.68 23.07 15.44 7.08 16.45 20.21 23.91 22.74 24.68 24.89 24.64 24.36 25.68 25.52 26.07 26.62 26.66 27.04 27.34 27.24 27.19 26.97 26.15 24.81 24.24 23.52 22.75 22.32 20.99 20.19 19.83 18.74 19.34 19.87 20.06 22.01 24.76 26.22 27.62 31.47 37.23 39.17 38.36 37.73 39.51 42.86 44.38
22.84 23.13 24.59 24.70 22.64 16.61 10.81 19.78 25.57 26.21 26.75 24.06 24.44 25.58 25.53 25.61 25.81 25.99 26.20 26.60 26.51 25.89 25.31 25.48 24.60 23.36 22.49 22.33 21.54 20.75 20.12 19.87 19.00 18.14 18.17 18.26 21.28 20.79 21.94 22.69 26.62 28.68 29.75 37.86 37.38 37.11 37.18 39.31 42.64
25.98 25.62 26.56 22.15 19.43 19.35 19.32 20.52 29.53 28.98 27.92 25.62 25.00 25.95 26.50 27.31 26.35 25.19 25.52 25.18 24.58 24.41 24.64 23.81 23.11 21.80 21.64 20.92 20.13 19.63 19.36 18.69 17.57 16.78 16.77 17.28 17.07 19.03 20.51 21.47 23.66 25.83 29.07 33.90 37.00 36.16 36.58 36.99 38.87